Weather in Chkhorotsku

Georgia     42°31′11″N   42°07′25″E
temp.,
°C
wind,
m/s
gust,
m/s
humid.,
%
clouds,
%
prec.,
mm/h
press.,
hPa
HPBL,
m
23 october, sat
sat2301:00+11ene11770 0.0 102211
04:00+10ene11740 0.0 102211
07:00+9ene11680 0.0 102111
10:00+14ese11610 0.0 1021124
13:00+19sw11510 0.0 1020474
16:00+19w12560 0.0 1019598
19:00+13nnw11830 0.0 102010
22:00+11ene11870 0.0 102110
24 october, sun
sun2401:00+10ene11850 0.0 102111
04:00+9ene11805 0.0 102110
07:00+9ene117663 0.0 102111
10:00+13ese126638 0.0 1021174
13:00+17sse1157100 0.0 1019471
16:00+18w015657 0.0 1017424
19:00+13n1176100 0.0 101710
22:00+11n1177100 0.0 101910
25 october, mon
mon2501:00+10ene1182100 0.0 102110
04:00+11ne1289100 1.1 102135
07:00+11w1297100 3.3 102287
10:00+10w2793100 11.7 1025433
13:00+12w368297 1.2 1026798
16:00+11wnw3683100 2.0 1026747
19:00+9w1488100 0.4 1027176
22:00+9ne0189100 0.5 102718
26 october, tue
tue2601:00+9ese1191100 0.5 102617
04:00+8e1194100 1.9 102738
07:00+8ese1295100 0.3 102877
10:00+9ese238766 0.4 1029399
13:00+12ssw117698 0.3 1028901
16:00+12wsw117434 0.6 1026721
19:00+9nw008930 0.1 102710
22:00+8nne119216 0.1 102711
27 october, wed
wed2701:00+7ne11893 0.0 102611
04:00+6ne11841 0.0 102511
07:00+6e11820 0.0 102511
10:00+10ese11710 0.0 1025170
13:00+15nne13560 0.0 1023758
16:00+16wnw12600 0.0 1021722
19:00+10n11820 0.0 102212
22:00+9ne11850 0.0 102311